Location: Gönnheim
(49.4488°N, 8.2383°E)
Time: 01:57:00
(UTC+00:00)

GEOS 3 Rocket - Pass Details

Date: 19 May 2025
Orbit: 782 x 832 km, 115.0° (Epoch: 23 June)

Event Time Altitude Azimuth Distance (km) Brightness Sun altitude
Exits shadow 23:21:52 - 112° (ESE) 2,530 6.0 -20.6°
Reaches altitude 10° 23:22:20 10° 110° (ESE) 2,346 5.8 -20.6°
Maximum altitude 23:27:11 47° 38° (NE) 1,048 4.5 -20.6°
Drops below altitude 10° 23:32:05 10° 326° (NW) 2,381 6.8 -20.5°
Sets 23:34:28 0° 321° (NW) 3,322 7.5 -20.5°
